Location: Marcé
(47.5801°N, 0.3280°W)
Time: 03:29:04
(UTC+01:00)

Courier 1B - Pass Details

Date: 07 December 2021
Orbit: 962 x 1209 km, 28.3° (Epoch: 26 January)

Event Time Altitude Azimuth Distance (km) Brightness Sun altitude
Rises 15:39:46 0° 209° (SSW) 4,093 12.8 10.4°
Reaches altitude 10° 15:45:19 10° 178° (S) 3,102 11.0 9.8°
Maximum altitude 15:47:24 11° 162° (SSE) 2,995 10.6 9.6°
Drops below altitude 10° 15:49:27 10° 146° (SSE) 3,070 10.4 9.3°
Sets 15:54:50 0° 115° (ESE) 3,975 10.5 8.7°
